When you browse on this site, cookies collect data to enhance your experience and personalize the content and advertising you see.
Visit our Privacy Policy to learn more. By continuing to use the site, you agree to this use of cookies and data.
  • In Lithuania
  • List of Countries
  • For 7 days
  • Water Temperature
  • Satellite Maps
  • Weather Map
  • Weather Widgets
  • user-avatar
    Login

    Hourly Weather San Carlos

    Today, 20 November, Tuesday

    Time Temperature Precipitation Wind Pressure Humidity
    00:00 +25°C° 0 mm 1 mps 744 mmHg 92%
    01:00 +25°C° 0 mm 1 mps 744 mmHg 92%
    02:00 +25°C° 0 mm 1 mps 744 mmHg 93%
    03:00 +25°C° 0 mm 1 mps 744 mmHg 93%
    04:00 +25°C° 0 mm 1 mps 744 mmHg 93%
    05:00 +26°C° 0 mm 1 mps 744 mmHg 90%
    06:00 +24°C° 0 mm 0 mps 745 mmHg 88%
    07:00 +25°C° 0 mm 0 mps 745 mmHg 85%
    08:00 +29°C° 0 mm 1 mps 745 mmHg 76%
    09:00 +31°C° 0 mm 1 mps 745 mmHg 68%
    10:00 +32°C° 0 mm 2 mps 746 mmHg 59%
    11:00 +34°C° 0 mm 2 mps 745 mmHg 57%
    12:00 +35°C° 0 mm 2 mps 744 mmHg 55%
    13:00 +35°C° 0 mm 2 mps 743 mmHg 53%
    14:00 +33°C° 0.2 mm 1 mps 743 mmHg 58%
    15:00 +33°C° 0.2 mm 1 mps 742 mmHg 63%
    16:00 +32°C° 0.2 mm 1 mps 742 mmHg 68%
    17:00 +30°C° 0.1 mm 1 mps 743 mmHg 73%
    18:00 +29°C° 0.1 mm 1 mps 743 mmHg 78%
    19:00 +27°C° 0.1 mm 1 mps 744 mmHg 83%
    20:00 +27°C° 0 mm 1 mps 744 mmHg 85%
    21:00 +27°C° 0 mm 1 mps 745 mmHg 86%
    22:00 +26°C° 0 mm 1 mps 745 mmHg 88%
    23:00 +26°C° 0 mm 1 mps 745 mmHg 88%

    Tomorrow, 21 November, Wednesday

    Time Temperature Precipitation Wind Pressure Humidity
    00:00 +26°C° 0 mm 1 mps 745 mmHg 89%
    01:00 +26°C° 0 mm 1 mps 745 mmHg 90%
    02:00 +25°C° 0 mm 1 mps 744 mmHg 91%
    03:00 +25°C° 0 mm 1 mps 744 mmHg 91%
    04:00 +25°C° 0 mm 1 mps 744 mmHg 92%
    05:00 +26°C° 0 mm 1 mps 745 mmHg 89%
    06:00 +26°C° 0 mm 1 mps 745 mmHg 87%
    07:00 +27°C° 0 mm 1 mps 746 mmHg 85%
    08:00 +29°C° 0.1 mm 1 mps 746 mmHg 78%
    09:00 +30°C° 0.1 mm 1 mps 746 mmHg 71%
    10:00 +32°C° 0.1 mm 1 mps 747 mmHg 64%
    11:00 +32°C° 0.2 mm 1 mps 746 mmHg 63%
    12:00 +33°C° 0.2 mm 1 mps 745 mmHg 62%
    13:00 +33°C° 0.2 mm 1 mps 744 mmHg 62%
    14:00 +33°C° 0.3 mm 1 mps 743 mmHg 65%
    15:00 +32°C° 0.3 mm 1 mps 743 mmHg 67%
    16:00 +32°C° 0.3 mm 1 mps 742 mmHg 70%
    17:00 +30°C° 0 mm 1 mps 743 mmHg 75%
    18:00 +29°C° 0 mm 1 mps 743 mmHg 79%
    19:00 +27°C° 0 mm 1 mps 744 mmHg 84%
    20:00 +27°C° 0 mm 1 mps 744 mmHg 85%
    21:00 +27°C° 0 mm 2 mps 744 mmHg 86%
    22:00 +26°C° 0 mm 2 mps 745 mmHg 87%
    23:00 +26°C° 0 mm 2 mps 744 mmHg 88%

    Day after tomorrow, 22 November, Thursday

    Time Temperature Precipitation Wind Pressure Humidity
    00:00 +25°C° 0 mm 2 mps 744 mmHg 88%
    01:00 +25°C° 0 mm 2 mps 744 mmHg 89%
    02:00 +24°C° 0 mm 1 mps 744 mmHg 89%
    03:00 +24°C° 0 mm 1 mps 744 mmHg 90%
    04:00 +23°C° 0 mm 1 mps 744 mmHg 90%
    05:00 +24°C° 0 mm 1 mps 744 mmHg 87%
    06:00 +25°C° 0 mm 1 mps 745 mmHg 84%
    07:00 +25°C° 0 mm 1 mps 745 mmHg 80%
    08:00 +27°C° 0 mm 1 mps 746 mmHg 72%
    09:00 +30°C° 0 mm 1 mps 746 mmHg 63%
    10:00 +32°C° 0 mm 2 mps 746 mmHg 55%
    11:00 +34°C° 0 mm 2 mps 745 mmHg 52%
    12:00 +33°C° 0 mm 1 mps 744 mmHg 50%
    13:00 +34°C° 0 mm 1 mps 743 mmHg 48%
    14:00 +33°C° 0 mm 1 mps 743 mmHg 52%
    15:00 +33°C° 0 mm 1 mps 742 mmHg 56%
    16:00 +32°C° 0 mm 1 mps 742 mmHg 60%
    17:00 +30°C° 0 mm 1 mps 742 mmHg 67%
    18:00 +28°C° 0 mm 1 mps 743 mmHg 74%
    19:00 +27°C° 0 mm 1 mps 743 mmHg 81%
    20:00 +26°C° 0 mm 1 mps 743 mmHg 82%
    21:00 +26°C° 0 mm 1 mps 744 mmHg 84%
    22:00 +26°C° 0 mm 1 mps 744 mmHg 86%
    23:00 +25°C° 0 mm 1 mps 744 mmHg 87%

    23 November, Friday

    Time Temperature Precipitation Wind Pressure Humidity
    00:00 +25°C° 0 mm 1 mps 744 mmHg 88%
    01:00 +25°C° 0 mm 1 mps 743 mmHg 89%
    02:00 +25°C° 0 mm 1 mps 743 mmHg 89%
    03:00 +24°C° 0 mm 1 mps 743 mmHg 90%
    04:00 +24°C° 0 mm 1 mps 743 mmHg 90%
    05:00 +25°C° 0 mm 1 mps 744 mmHg 87%
    06:00 +26°C° 0 mm 1 mps 744 mmHg 85%
    07:00 +26°C° 0 mm 1 mps 745 mmHg 82%
    08:00 +28°C° 0 mm 1 mps 745 mmHg 74%
    09:00 +30°C° 0 mm 1 mps 745 mmHg 65%
    10:00 +32°C° 0 mm 1 mps 745 mmHg 57%
    11:00 +32°C° 0.1 mm 1 mps 744 mmHg 57%
    12:00 +33°C° 0.1 mm 1 mps 743 mmHg 57%
    13:00 +33°C° 0.1 mm 1 mps 742 mmHg 56%
    14:00 +33°C° 0 mm 1 mps 742 mmHg 59%
    15:00 +32°C° 0 mm 1 mps 741 mmHg 62%
    16:00 +30°C° 0 mm 0 mps 741 mmHg 65%
    17:00 +28°C° 0 mm 0 mps 741 mmHg 70%
    18:00 +28°C° 0 mm 1 mps 742 mmHg 75%
    19:00 +27°C° 0 mm 1 mps 742 mmHg 80%
    20:00 +26°C° 0 mm 1 mps 743 mmHg 82%
    21:00 +26°C° 0 mm 1 mps 743 mmHg 84%
    22:00 +26°C° 0 mm 1 mps 743 mmHg 85%
    23:00 +25°C° 0 mm 1 mps 743 mmHg 87%

    24 November, Saturday

    Time Temperature Precipitation Wind Pressure Humidity
    00:00 +25°C° 0 mm 1 mps 743 mmHg 88%
    01:00 +25°C° 0 mm 1 mps 742 mmHg 89%
    02:00 +25°C° 0 mm 1 mps 742 mmHg 89%
    03:00 +24°C° 0 mm 1 mps 743 mmHg 90%
    04:00 +24°C° 0 mm 1 mps 743 mmHg 90%
    05:00 +25°C° 0 mm 1 mps 743 mmHg 87%
    06:00 +26°C° 0 mm 1 mps 744 mmHg 84%
    07:00 +27°C° 0 mm 1 mps 744 mmHg 82%
    08:00 +29°C° 0 mm 1 mps 744 mmHg 73%
    09:00 +31°C° 0 mm 1 mps 744 mmHg 65%
    10:00 +33°C° 0 mm 1 mps 744 mmHg 56%
    11:00 +33°C° 0.1 mm 1 mps 744 mmHg 54%
    12:00 +34°C° 0.1 mm 1 mps 743 mmHg 52%
    13:00 +35°C° 0.1 mm 1 mps 742 mmHg 50%
    14:00 +34°C° 0.1 mm 1 mps 741 mmHg 54%
    15:00 +33°C° 0.1 mm 1 mps 741 mmHg 57%
    16:00 +33°C° 0.1 mm 1 mps 741 mmHg 61%
    17:00 +31°C° 0 mm 1 mps 741 mmHg 67%
    18:00 +29°C° 0 mm 1 mps 742 mmHg 72%
    19:00 +27°C° 0 mm 1 mps 743 mmHg 78%
    20:00 +27°C° 0 mm 1 mps 743 mmHg 80%
    21:00 +26°C° 0 mm 1 mps 743 mmHg 82%
    22:00 +26°C° 0 mm 1 mps 743 mmHg 84%
    23:00 +26°C° 0 mm 1 mps 743 mmHg 85%

    25 November, Sunday

    Time Temperature Precipitation Wind Pressure Humidity
    00:00 +25°C° 0 mm 1 mps 743 mmHg 86%
    01:00 +25°C° 0 mm 1 mps 743 mmHg 87%
    02:00 +25°C° 0 mm 1 mps 743 mmHg 88%
    03:00 +25°C° 0 mm 1 mps 743 mmHg 88%
    04:00 +25°C° 0 mm 1 mps 743 mmHg 88%
    05:00 +25°C° 0 mm 1 mps 744 mmHg 86%
    06:00 +26°C° 0 mm 1 mps 744 mmHg 84%
    07:00 +25°C° 0 mm 0 mps 745 mmHg 81%
    08:00 +29°C° 0 mm 1 mps 745 mmHg 72%
    09:00 +31°C° 0 mm 1 mps 745 mmHg 63%
    10:00 +32°C° 0 mm 2 mps 745 mmHg 55%
    11:00 +34°C° 0 mm 2 mps 744 mmHg 52%
    12:00 +34°C° 0 mm 1 mps 743 mmHg 50%
    13:00 +35°C° 0 mm 1 mps 742 mmHg 48%
    14:00 +34°C° 0 mm 1 mps 742 mmHg 52%
    15:00 +33°C° 0 mm 1 mps 742 mmHg 56%
    16:00 +31°C° 0 mm 0 mps 741 mmHg 60%
    17:00 +31°C° 0 mm 1 mps 742 mmHg 65%
    18:00 +29°C° 0 mm 1 mps 742 mmHg 71%
    19:00 +28°C° 0 mm 1 mps 743 mmHg 77%
    20:00 +27°C° 0 mm 1 mps 743 mmHg 79%
    21:00 +27°C° 0 mm 1 mps 744 mmHg 81%
    22:00 +27°C° 0 mm 1 mps 744 mmHg 83%
    23:00 +26°C° 0 mm 1 mps 744 mmHg 84%
    Show more